EOLE 1 (CAS-A)

Satellite information

Favourite Embed

Satellite Type and Status

PAYLOADIN ORBIT

Key statistics

Satellite EOLE 1 (CAS-A) at a glance.

Uptime

19684

Days in orbit

Revolutions

≈ 14.6

Per day

Orbit

LEO

Low Earth Orbit

Inclination

50.1

Latest

Satellite identification and parameters

Extended collection of information and parameters for EOLE 1 (CAS-A).

Object identification

Identified? True

Debris? False

Object name: EOLE 1 (CAS-A)

International designator: 1971-071A

Object number (NORAD): 5435

Object ID (CCSDS): 5435

Country: FRANCE (FR)

Current information (Y/N): Y

RCS size: LARGE

Orbital parameters

Period: 98.666 minutes

Inclination: 50.1379 deg

SMA: 7073.03 km

Apoapsis: 768.027 km

Periapsis: 621.763 km

RAAN: 164.9241 deg

Eccentricy: 0.0103396

Argument of periapsis: 352.8503 deg

Mean anomaly: 7.0947 deg

Mean motion: 14.59467728 rev/day

Mean motion (dot): 0.00000793 rev/day2

B* drag term: 0.00019421 1/REarth

Two-line elements (TLE)

Creation date: July 6, 2025, 6:05 p.m.

Reference frame: TEME

Reference center: EARTH

Epoch: July 6, 2025, 7:28 a.m. UTC

TLE line 0: 0 EOLE 1 (CAS-A)

TLE line 1: 1 05435U 71071A 25187.31177518 .00000793 00000-0 19421-3 0 9998

TLE line 2: 2 05435 50.1379 164.9241 0103396 352.8503 7.0947 14.59467728825464

Live tracking on map

Real-time ground track for satellite EOLE 1 (CAS-A).

In-orbit conjunctions

A list of the most updated potential collisions computed for object EOLE 1 (CAS-A).

Target Orbit TCA Probability of collision Miss distance Type
THOR ABLESTAR DEB LEO 2025-04-05 12:17:23 0.0003014405 266.0 (m) DEBRIS
FENGYUN 1C DEB SSO 2025-02-13 09:49:11 0.0001482785 780.0 (m) DEBRIS
SL-8 R/B LEO 2024-12-22 14:54:36 0.0002376353 824.0 (m) ROCKET BODY
PEGASUS DEB LEO 2024-08-06 04:50:49 0.0005062541 776.0 (m) DEBRIS
FENGYUN 1C DEB SSO 2024-07-22 18:42:52 0.001699441 338.0 (m) DEBRIS

Associated space launch

Second French experimental data relay satellite for meteorological data.

EOLE 1 (CAS-A) was lifted into orbit during the mission ‘Scout B-1 | Eole’, on board a Scout B-1 space rocket.

The launch took place on Aug. 16, 1971, 6:39 p.m. from Launch Area 3A.

For more information about the launch, click the button.

Launch to space Scout B-1 | Eole
Scout B-1 | Eole

Agency: N/A

Status: Launch Successful

Launch date: Aug. 16, 1971, 6:39 p.m. UTC

Rocket: Scout B-1

Launch pad: Launch Area 3A

Location: Wallops Flight Facility, Virginia, USA

...

Latest news about this satellite

There are no fresh news available about this satellite. Check back as we update our databases every day.


Newsletter sign-up

Weekly statistics, charts and insights to help you stay on top of the space industry.